TimeCST,TemperatureF,Dew PointF,Humidity,Sea Level PressureIn,VisibilityMPH,Wind Direction,Wind SpeedMPH,Gust SpeedMPH,PrecipitationIn,Events,Conditions,WindDirDegrees,DateUTC
12:15 AM,28.4,25.0,87,30.13,7.0,ESE,4.6,-,N/A,,Clear,120,2013-02-25 06:15:00
12:35 AM,28.4,24.8,86,30.12,7.0,ESE,4.6,-,N/A,,Clear,110,2013-02-25 06:35:00
12:55 AM,26.4,23.7,90,30.11,7.0,East,5.8,-,N/A,,Clear,90,2013-02-25 06:55:00
1:15 AM,27.1,24.3,89,30.12,7.0,East,5.8,-,N/A,,Clear,90,2013-02-25 07:15:00
1:35 AM,26.6,24.8,93,30.12,7.0,East,5.8,-,N/A,,Clear,80,2013-02-25 07:35:00
1:55 AM,26.1,23.4,90,30.12,5.0,ENE,4.6,-,N/A,,Clear,60,2013-02-25 07:55:00
2:15 AM,25.5,22.8,89,30.12,5.0,ENE,4.6,-,N/A,,Clear,70,2013-02-25 08:15:00
2:35 AM,25.2,22.6,90,30.12,5.0,ENE,4.6,-,N/A,,Clear,60,2013-02-25 08:35:00
2:55 AM,24.6,22.1,90,30.12,5.0,ENE,4.6,-,N/A,,Clear,60,2013-02-25 08:55:00
3:15 AM,24.6,22.1,90,30.11,5.0,ENE,5.8,-,N/A,,Clear,70,2013-02-25 09:15:00
3:35 AM,23.9,21.6,91,30.11,5.0,East,4.6,-,N/A,,Clear,80,2013-02-25 09:35:00
3:55 AM,23.9,21.2,89,30.11,5.0,ENE,6.9,-,N/A,,Clear,70,2013-02-25 09:55:00
4:15 AM,24.6,21.7,89,30.12,7.0,ENE,5.8,-,N/A,,Clear,70,2013-02-25 10:15:00
4:35 AM,24.3,21.2,88,30.13,7.0,ENE,5.8,-,N/A,,Clear,70,2013-02-25 10:35:00
4:55 AM,23.9,21.0,89,30.13,7.0,East,4.6,-,N/A,,Clear,80,2013-02-25 10:55:00
5:15 AM,23.7,20.7,88,30.13,7.0,East,5.8,-,N/A,,Clear,90,2013-02-25 11:15:00
5:35 AM,23.0,21.2,93,30.15,5.0,East,3.5,-,N/A,,Clear,90,2013-02-25 11:35:00
5:55 AM,23.5,21.0,90,30.14,5.0,East,5.8,-,N/A,,Clear,90,2013-02-25 11:55:00
6:15 AM,23.9,21.2,89,30.13,5.0,East,5.8,-,N/A,,Scattered Clouds,100,2013-02-25 12:15:00
6:35 AM,24.8,23.0,93,30.12,4.0,East,6.9,-,N/A,,Mostly Cloudy,90,2013-02-25 12:35:00
6:55 AM,25.5,23.0,90,30.12,4.0,East,6.9,-,N/A,,Overcast,80,2013-02-25 12:55:00
7:15 AM,25.9,23.4,90,30.12,4.0,East,6.9,-,N/A,,Mostly Cloudy,80,2013-02-25 13:15:00
7:35 AM,26.1,23.5,90,30.12,4.0,ENE,4.6,-,N/A,,Scattered Clouds,70,2013-02-25 13:35:00
7:55 AM,27.5,24.4,88,30.13,4.0,ENE,5.8,-,N/A,,Clear,60,2013-02-25 13:55:00
8:15 AM,28.4,25.0,87,30.13,4.0,ENE,4.6,-,N/A,,Clear,70,2013-02-25 14:15:00
8:35 AM,30.0,25.7,84,30.13,5.0,East,5.8,-,N/A,,Haze,90,2013-02-25 14:35:00
8:55 AM,31.1,26.4,83,30.13,5.0,East,4.6,-,N/A,,Haze,80,2013-02-25 14:55:00
9:15 AM,32.4,27.3,82,30.13,7.0,ENE,5.8,-,N/A,,Clear,70,2013-02-25 15:15:00
9:35 AM,33.1,27.5,80,30.12,7.0,ENE,5.8,-,N/A,,Clear,70,2013-02-25 15:35:00
9:55 AM,35.1,28.2,76,30.11,7.0,East,6.9,-,N/A,,Clear,80,2013-02-25 15:55:00
10:15 AM,35.8,28.2,74,30.11,7.0,East,6.9,-,N/A,,Clear,80,2013-02-25 16:15:00
10:35 AM,37.6,28.4,69,30.12,7.0,East,5.8,-,N/A,,Clear,90,2013-02-25 16:35:00
10:55 AM,38.3,27.0,64,30.12,10.0,SE,10.4,-,N/A,,Clear,130,2013-02-25 16:55:00
11:15 AM,39.6,28.2,64,30.12,10.0,ESE,5.8,-,N/A,,Clear,110,2013-02-25 17:15:00
11:35 AM,39.9,28.4,63,30.12,10.0,ESE,5.8,-,N/A,,Clear,120,2013-02-25 17:35:00
11:55 AM,40.3,28.9,64,30.11,10.0,ESE,6.9,-,N/A,,Clear,120,2013-02-25 17:55:00
12:15 PM,40.8,28.9,63,30.09,10.0,ESE,8.1,-,N/A,,Clear,120,2013-02-25 18:15:00
12:35 PM,41.4,29.8,64,30.09,10.0,ESE,6.9,-,N/A,,Clear,110,2013-02-25 18:35:00
12:55 PM,41.4,29.8,64,30.08,10.0,ESE,6.9,-,N/A,,Clear,120,2013-02-25 18:55:00
1:15 PM,41.7,29.8,63,30.07,10.0,ESE,6.9,-,N/A,,Clear,120,2013-02-25 19:15:00
1:35 PM,42.1,29.3,61,30.07,10.0,ESE,5.8,-,N/A,,Clear,120,2013-02-25 19:35:00
1:55 PM,41.5,28.2,59,30.06,10.0,East,8.1,-,N/A,,Clear,90,2013-02-25 19:55:00
2:15 PM,42.1,29.7,61,30.06,10.0,East,5.8,-,N/A,,Clear,90,2013-02-25 20:15:00
2:35 PM,42.1,28.9,60,30.07,10.0,ENE,6.9,-,N/A,,Clear,70,2013-02-25 20:35:00
2:55 PM,42.1,30.4,63,30.05,10.0,ENE,6.9,-,N/A,,Clear,70,2013-02-25 20:55:00
3:15 PM,41.0,30.9,67,30.03,10.0,ENE,9.2,-,N/A,,Clear,60,2013-02-25 21:15:00
3:35 PM,40.6,31.1,69,30.03,10.0,ENE,12.7,-,N/A,,Clear,70,2013-02-25 21:35:00
3:55 PM,39.9,30.2,68,30.02,10.0,ENE,11.5,-,N/A,,Clear,70,2013-02-25 21:55:00
4:15 PM,39.6,29.8,68,30.01,10.0,ENE,9.2,-,N/A,,Clear,60,2013-02-25 22:15:00
4:35 PM,39.6,31.1,72,30.02,10.0,ENE,6.9,-,N/A,,Clear,60,2013-02-25 22:35:00
4:55 PM,38.3,30.9,75,30.01,10.0,ENE,6.9,-,N/A,,Clear,70,2013-02-25 22:55:00
5:15 PM,38.3,30.9,75,30.01,10.0,ENE,9.2,-,N/A,,Clear,60,2013-02-25 23:15:00
5:35 PM,37.4,30.9,77,30.00,10.0,ENE,8.1,-,N/A,,Clear,60,2013-02-25 23:35:00
5:55 PM,36.9,30.0,76,29.99,10.0,ENE,10.4,-,N/A,,Clear,70,2013-02-25 23:55:00
6:15 PM,36.9,30.2,77,29.99,10.0,ENE,10.4,-,N/A,,Clear,70,2013-02-26 00:15:00
6:35 PM,36.0,29.8,78,29.98,10.0,ENE,10.4,-,N/A,,Clear,60,2013-02-26 00:35:00
6:55 PM,36.0,29.7,78,29.99,10.0,ENE,6.9,-,N/A,,Clear,70,2013-02-26 00:55:00
7:15 PM,35.6,29.7,79,29.96,10.0,NE,10.4,-,N/A,,Clear,50,2013-02-26 01:15:00
7:35 PM,35.2,30.0,81,29.97,10.0,NE,11.5,-,N/A,,Clear,50,2013-02-26 01:35:00
7:55 PM,35.2,29.7,80,29.98,10.0,ENE,9.2,-,N/A,,Clear,70,2013-02-26 01:55:00
8:15 PM,35.6,29.3,78,29.98,10.0,ENE,11.5,-,N/A,,Clear,70,2013-02-26 02:15:00
8:35 PM,35.4,28.8,77,29.98,10.0,ENE,11.5,-,N/A,,Clear,70,2013-02-26 02:35:00
8:55 PM,35.1,28.9,78,29.98,10.0,ENE,15.0,-,N/A,,Clear,70,2013-02-26 02:55:00
9:15 PM,35.6,28.4,75,30.00,10.0,ENE,12.7,19.6,N/A,,Clear,70,2013-02-26 03:15:00
9:35 PM,35.6,28.4,75,30.00,10.0,East,13.8,-,N/A,,Clear,80,2013-02-26 03:35:00
9:55 PM,35.1,28.4,77,29.98,10.0,ENE,15.0,-,N/A,,Clear,70,2013-02-26 03:55:00
10:15 PM,34.7,28.6,78,29.96,10.0,ENE,15.0,18.4,N/A,,Clear,60,2013-02-26 04:15:00
10:35 PM,34.7,28.8,79,29.96,10.0,ENE,12.7,-,N/A,,Clear,60,2013-02-26 04:35:00
10:55 PM,34.7,28.8,79,29.93,10.0,ENE,15.0,-,N/A,,Clear,60,2013-02-26 04:55:00
11:15 PM,34.7,28.9,79,29.92,10.0,ENE,17.3,21.9,N/A,,Clear,70,2013-02-26 05:15:00
11:35 PM,34.7,29.1,80,29.91,10.0,ENE,16.1,20.7,N/A,,Clear,70,2013-02-26 05:35:00
11:55 PM,34.7,29.3,81,29.90,10.0,ENE,15.0,-,N/A,,Clear,60,2013-02-26 05:55:00